Temperature
16 15 15 15 15 15 15 15 15 15 15 15 15 15 15 15 15 15 15 15 15 15 15 14 14 15 15 14 15 15 15 15 15 15 15 15 15 15 15 15 15 15 15
16 15 15 15 15 15 15 15 15 15 15 15 15 15 15 15 15 15 15 15 15 15 15 15 15 14 14 14 14 15 15 15 15 14 14 14 14 14 14 14 14 14 14
16 15 15 15 15 15 15 15 15 15 15 15 15 15 15 15 15 15 15 15 14 14 15 15 15 14 14 14 15 15 14 14 14 14 14 14 14 14 14 14 14 14 14
15 15 15 15 15 15 15 15 15 15 15 15 15 15 15 15 15 14 14 14 14 14 14 15 14 14 14 14 14 14 14 14 14 14 14 14 14 14 14 14 14 14 14
15 15 14 14 14 14 14 14 15 15 15 15 14 14 14 14 15 14 14 14 14 14 14 14 14 14 14 14 14 14 14 14 14 14 14 14 14 14 14 14 14 14 14
15 14 14 14 14 14 14 14 14 14 14 14 14 14 14 14 14 14 14 14 14 14 14 14 14 14 14 14 14 14 14 14 14 14 14 13 13 13 14 14 14 14 14
14 14 14 14 14 14 14 14 14 14 14 14 14 14 14 14 14 14 14 14 14 14 14 14 14 14 14 14 13 13 13 13 13 13 13 13 13 13 13 13 13 13 13
14 14 14 14 14 14 14 14 14 14 14 14 14 14 14 14 14 14 14 14 14 14 14 14 14 14 14 13 13 13 13 13 13 13 13 13 13 13 13 13 13 13 13
14 14 14 14 14 14 14 14 14 14 14 14 14 14 14 14 14 14 14 14 14 13 13 13 14 13 13 13 13 13 13 13 13 13 13 13 13 13 13 13 13 13 13
13 13 14 14 14 14 14 13 13 13 13 13 13 13 13 13 13 14 14 13 13 13 13 13 13 13 13 13 13 12 12 12 12 12 12 12 12 13 13 12 12 12 12
13 13 13 13 13 13 13 13 13 13 13 13 13 13 13 13 13 13 13 13 13 13 13 13 13 13 13 13 12 12 12 12 12 12 12 12 12 12 12 12 12 12 12
13 13 13 13 13 13 13 13 13 13 13 13 13 13 13 13 13 13 13 13 13 13 13 13 13 13 12 12 12 12 12 12 12 12 12 12 12 12 12 12 12 12 12
13 13 13 13 13 13 13 13 13 13 12 12 12 12 12 12 12 12 13 13 13 13 13 13 12 12 12 12 12 12 12 12 12 12 11 11 11 12 12 12 11 11 11
12 12 12 12 12 12 13 13 12 12 12 12 12 12 12 12 12 12 12 12 12 12 12 12 12 12 12 12 11 11 11 11 11 11 11 11 11 11 11 11 11 11 11
12 12 12 12 12 12 12 12 12 12 12 12 12 12 12 12 12 12 12 12 12 12 12 12 12 12 12 11 11 11 11 11 11 11 11 11 11 11 11 11 11 11 11
12 12 12 12 12 12 12 12 12 12 12 12 12 12 12 11 12 12 12 12 12 12 12 11 11 11 11 11 11 11 11 11 10 11 11 11 11 11 11 11 11 11 11
12 12 12 12 12 12 11 11 11 11 11 11 11 11 11 11 11 11 11 11 11 11 11 11 11 11 11 11 11 10 10 10 10 10 10 10 10 10 11 11 10 11 10
12 12 12 11 11 11 11 11 11 11 11 11 11 11 11 11 11 11 11 11 11 11 11 11 11 11 11 10 10 10 10 10 10 10 10 10 10 10 10 10 10 10 10
12 12 11 11 11 11 11 11 11 11 11 11 10 10 10 10 10 11 11 11 11 11 11 10 10 10 10 10 10 10 10 10 10 10 10 10 10 10 10 10 10 10 10
11 11 11 11 11 11 11 11 10 10 10 10 10 10 10 10 10 10 10 10 10 10 10 10 10 10 10 10 9 9 9 9 9 9 9 9 9 10 10 9 10 10 10
11 11 11 11 11 10 10 10 10 10 10 10 10 10 10 10 10 10 10 10 10 10 10 10 10 9 9 9 9 8 8 9 9 9 9 9 9 9 9 9 9 9 9
11 11 11 10 10 10 10 10 10 10 10 10 9 9 9 9 9 9 10 10 10 10 10 10 9 9 9 9 8 8 8 8 8 8 8 8 9 9 9 8 9 9 9
11 11 10 10 10 10 10 10 9 9 9 9 9 9 9 9 9 9 9 9 9 9 9 9 9 9 9 8 8 8 8 8 7 8 8 8 8 8 8 8 8 8 8
10 10 10 10 10 10 10 9 9 9 9 9 9 9 9 9 9 8 9 9 9 9 9 9 9 9 9 8 8 8 8 8 8 7 7 8 8 8 8 8 7 7 8
10 10 10 10 9 9 9 9 9 9 9 9 8 8 8 8 8 8 8 8 8 8 8 8 8 8 8 8 8 8 8 8 8 8 7 7 7 7 7 7 7 7 7
10 9 9 9 9 9 9 9 9 9 8 8 8 8 8 8 8 8 8 8 8 8 8 8 8 8 8 8 7 7 7 7 8 8 8 7 7 7 7 7 7 7 7
Wind_Speed
3 6 11 11 11 10 10 10 11 11 11 11 12 11 11 11 11 11 11 10 10 10 10 10 10 10 11 11 11 12 12 12 12 12 12 12 12 13 12 12 12 12 13
5 8 12 12 11 10 10 10 11 10 10 11 11 11 11 11 11 11 10 10 10 10 10 10 10 10 10 10 10 11 11 11 11 11 11 11 11 11 11 11 11 11 12
6 9 11 12 11 11 10 10 10 10 10 10 10 10 10 10 10 10 10 10 10 10 10 9 9 9 9 10 9 9 9 10 10 10 9 9 9 10 10 10 11 11 12
6 8 9 12 11 11 11 10 10 10 10 10 10 9 10 10 10 10 10 9 9 9 9 9 9 8 9 9 8 8 8 9 9 8 8 7 7 9 10 10 10 11 12
6 6 8 11 11 10 10 10 10 10 10 9 9 9 9 9 9 9 10 9 9 9 9 8 8 8 8 8 8 8 8 8 9 8 7 6 6 8 9 9 10 10 11
5 5 7 10 10 11 10 10 10 10 10 9 9 9 9 9 9 9 9 10 9 9 8 8 8 8 7 7 8 8 9 9 9 8 7 6 6 8 9 9 9 9 10
5 5 7 9 9 10 10 10 10 10 9 9 9 9 9 9 9 10 10 10 9 8 8 8 8 7 7 7 7 8 9 9 9 8 7 6 6 7 8 8 9 9 9
5 4 6 9 9 9 9 10 10 10 10 10 9 9 9 9 10 10 10 9 9 8 8 8 7 7 7 7 8 8 9 8 8 7 6 6 6 7 7 8 8 8 9
3 3 3 5 7 8 9 9 9 9 10 10 10 10 9 10 10 10 10 9 8 8 8 7 7 7 7 7 8 9 9 8 8 6 5 5 6 7 7 8 8 9 8
2 2 2 3 4 5 7 8 8 8 8 10 11 10 10 10 10 9 9 9 8 8 7 7 7 7 7 7 8 9 9 8 7 6 5 5 6 7 7 7 8 8 9
1 1 1 2 3 4 5 7 7 8 9 10 10 11 10 8 8 8 8 8 8 7 7 7 7 7 7 7 8 8 8 7 7 5 4 5 6 6 7 7 8 8 9
3 3 2 2 2 4 5 5 5 6 7 7 8 9 8 8 8 7 8 8 8 8 7 7 7 7 7 7 7 7 7 7 6 4 4 5 6 6 7 7 7 8 8
4 3 3 3 2 3 3 4 4 5 6 7 8 8 8 8 7 7 6 6 7 7 7 6 7 7 6 6 6 6 7 7 5 4 4 5 5 5 5 6 7 7 7
4 5 3 3 3 3 4 4 4 4 4 5 6 8 8 5 4 4 4 5 5 6 6 6 6 6 6 6 7 6 7 6 5 5 5 5 5 5 5 6 6 6 6
6 6 5 4 4 3 3 3 4 4 4 5 6 7 8 5 4 4 3 4 5 5 5 5 5 5 5 5 6 6 6 6 6 6 6 6 6 5 5 5 5 6 6
7 7 6 5 5 4 4 3 4 5 5 5 5 6 7 6 5 4 3 3 4 4 5 5 5 4 3 4 4 5 6 6 6 6 6 6 6 6 5 5 4 4 4
8 7 7 6 6 6 5 4 4 5 6 5 5 6 7 7 6 5 4 3 3 5 6 5 5 5 3 3 3 4 5 5 6 6 6 6 6 6 5 5 4 4 4
6 7 7 6 6 6 5 4 4 5 5 4 5 6 6 7 7 6 4 3 5 6 5 4 3 3 3 3 2 2 3 4 5 5 5 6 6 5 5 5 4 4 4
7 7 7 6 6 7 6 5 4 5 5 4 5 5 5 6 7 6 5 4 6 5 4 3 2 2 3 3 2 2 2 2 2 4 4 4 4 5 5 4 4 4 3
6 6 6 6 6 6 5 4 3 4 3 3 4 4 6 6 7 6 4 5 6 4 3 3 3 2 2 3 3 3 2 1 2 2 2 3 3 4 4 3 3 3 3
5 6 6 6 5 5 4 4 4 5 4 3 3 4 5 6 7 6 4 5 5 5 5 5 3 3 2 2 3 2 2 2 2 1 1 2 2 3 4 3 3 3 3
6 6 6 6 6 6 5 5 4 4 4 4 3 3 4 5 6 6 5 5 5 5 5 5 4 3 1 2 2 2 1 1 1 0 0 1 1 2 2 1 2 3 2
6 7 7 7 7 7 6 4 4 3 3 2 3 3 3 5 5 5 6 6 6 6 6 6 6 5 3 1 1 2 3 3 1 1 1 0 0 0 1 1 1 1 1
7 6 6 6 6 6 7 7 7 6 5 5 4 4 4 5 5 6 6 6 6 6 6 7 6 4 6 4 1 1 1 2 2 1 1 1 1 1 1 1 1 1 1
6 6 6 6 6 6 7 8 8 6 5 4 4 5 4 4 5 5 6 6 6 5 6 6 5 5 4 4 3 1 2 1 1 2 2 2 2 2 2 2 2 2 2
4 4 5 6 6 6 7 7 8 9 8 7 6 6 5 3 4 5 6 6 5 5 6 6 6 7 5 4 3 2 2 2 2 2 2 2 2 2 2 2 2 3 3
Wind_Direction
180 179 170 156 149 142 135 132 128 127 123 121 122 123 125 126 123 121 120 119 116 112 108 104 101 100 99 99 95 92 94 94 92 88 87 89 91 91 88 87 84 83 86
166 171 168 158 152 146 139 136 136 133 129 126 125 124 126 128 128 126 124 121 117 114 111 107 104 104 104 103 99 96 94 94 93 90 86 85 90 93 93 92 91 89 88
151 160 165 160 156 151 145 141 140 138 135 133 131 129 128 128 132 133 130 124 118 114 109 107 105 106 106 105 103 101 99 98 95 91 86 84 91 98 98 96 94 91 89
145 149 159 160 159 156 151 148 144 142 141 139 137 136 132 129 130 131 132 127 121 116 111 107 107 107 107 108 108 107 105 106 100 92 86 84 91 100 102 99 95 94 91
137 142 155 160 162 160 156 155 152 148 145 143 142 140 136 132 133 131 125 121 119 117 114 111 109 111 110 111 111 111 109 109 103 94 90 85 88 101 102 101 97 97 95
134 139 155 159 165 165 161 160 158 155 151 149 145 143 140 135 133 128 120 114 111 114 115 113 110 110 109 112 114 114 109 108 101 94 90 87 94 105 105 105 102 102 100
139 137 152 157 162 165 166 165 163 158 154 153 150 147 142 137 134 125 119 116 114 114 114 111 110 110 108 112 117 115 110 107 102 94 87 89 99 104 107 107 104 105 104
143 137 152 160 159 160 166 168 167 164 159 155 151 147 142 135 130 126 122 119 119 117 112 110 109 110 109 109 113 113 112 109 106 96 92 90 97 103 103 107 105 105 104
124 127 137 153 157 161 164 166 167 166 163 156 150 144 140 133 130 128 123 120 119 117 113 109 106 109 111 109 110 111 111 108 106 99 95 93 100 105 102 101 101 99 100
104 127 135 142 142 147 159 162 164 161 164 157 149 144 140 135 133 130 128 124 122 120 117 110 105 105 106 107 107 108 109 105 101 96 94 98 103 105 106 106 107 104 100
153 183 155 151 143 143 149 157 155 158 161 157 152 146 140 133 132 132 131 128 125 123 121 113 107 104 100 102 104 105 105 103 101 94 96 106 107 103 104 106 105 105 102
209 219 201 182 166 154 154 144 140 146 150 149 147 144 139 133 131 132 137 133 128 124 121 114 109 103 97 97 95 97 100 99 91 85 96 106 108 104 102 102 104 104 103
208 211 203 193 176 163 148 142 136 138 135 134 138 137 135 128 125 122 120 118 116 114 106 105 100 102 107 107 101 97 98 95 86 79 86 101 108 106 105 107 106 106 104
207 216 213 188 173 170 156 148 141 137 131 131 137 138 133 125 122 123 116 115 112 111 106 103 104 105 107 112 112 104 99 96 84 76 81 97 103 107 108 110 110 108 105
207 214 213 198 189 175 159 156 150 146 143 142 141 144 143 137 141 131 124 120 117 118 116 112 110 108 107 108 110 107 100 96 91 81 78 88 97 102 104 107 111 115 109
213 210 206 202 193 173 176 178 160 151 147 142 144 148 145 144 143 137 132 124 122 126 123 124 124 118 111 112 105 106 105 100 93 89 82 79 81 89 95 96 99 114 116
213 203 198 196 186 173 178 177 160 151 147 144 151 155 151 149 147 140 141 136 134 131 120 113 107 107 102 98 95 103 103 102 102 96 91 87 82 76 81 81 79 88 99
204 196 197 190 179 176 172 172 163 151 145 146 154 160 159 158 155 144 145 146 139 131 126 124 121 102 96 98 94 93 101 103 101 100 98 96 92 83 72 69 70 72 86
201 193 190 187 179 177 170 166 166 152 147 148 151 156 166 166 161 152 154 148 141 130 126 132 118 117 120 105 92 76 76 94 106 105 101 100 101 97 87 75 67 63 75
199 190 187 185 183 176 165 155 162 154 154 145 151 162 167 168 166 157 149 147 145 141 137 131 121 92 116 120 95 64 41 49 83 99 110 104 100 101 99 95 81 69 65
187 185 188 185 184 168 160 170 180 181 176 174 171 168 173 171 168 162 156 156 156 158 157 143 126 109 91 99 87 56 21 40 69 78 104 106 91 92 96 99 99 92 76
192 191 191 191 187 181 180 178 179 165 166 174 175 163 175 178 174 171 165 169 168 159 153 150 137 127 116 131 119 114 82 350 354 32 156 177 152 98 101 105 105 99 89
199 197 198 196 192 188 180 163 150 132 118 150 176 184 179 179 182 176 175 171 171 170 173 172 163 150 159 179 133 145 156 202 244 302 292 226 209 173 159 134 138 115 119
207 199 197 196 194 186 177 173 169 173 175 183 181 189 186 182 182 181 177 176 175 176 177 179 174 165 159 170 170 54 121 146 157 198 289 296 286 249 232 203 203 213 225
207 196 194 190 190 184 182 183 179 181 179 166 165 177 186 189 186 183 179 178 180 181 180 178 174 170 168 172 170 151 100 65 121 162 214 258 282 259 252 229 212 225 240
205 194 188 184 189 185 185 186 184 181 176 169 175 181 185 190 191 188 180 180 182 181 182 182 180 179 178 172 168 161 157 161 181 169 181 217 242 260 260 247 229 228 243
Height
1508 1509 1511 1513 1515 1517 1518 1520 1521 1522 1523 1525 1525 1526 1527 1529 1530 1531 1532 1533 1534 1535 1536 1537 1538 1538 1539 1540 1541 1542 1542 1543 1544 1544 1545 1546 1546 1547 1548 1548 1549 1549 1549
1507 1509 1511 1513 1515 1516 1518 1519 1521 1522 1523 1524 1525 1526 1527 1529 1530 1531 1532 1533 1534 1535 1536 1537 1538 1539 1540 1540 1541 1542 1543 1544 1544 1545 1546 1547 1547 1548 1549 1549 1550 1550 1551
1506 1508 1510 1512 1514 1516 1518 1519 1520 1522 1523 1524 1525 1526 1527 1528 1530 1531 1532 1533 1534 1535 1536 1537 1538 1539 1540 1541 1542 1543 1543 1544 1545 1546 1547 1547 1548 1549 1550 1550 1551 1551 1551
1506 1508 1510 1512 1514 1515 1517 1519 1520 1521 1523 1524 1525 1526 1527 1528 1529 1531 1532 1533 1534 1535 1536 1537 1538 1539 1540 1541 1542 1543 1544 1544 1545 1546 1547 1548 1549 1549 1550 1551 1551 1552 1552
1507 1508 1510 1512 1513 1515 1516 1518 1519 1521 1522 1524 1525 1526 1527 1528 1529 1531 1532 1533 1534 1535 1536 1537 1538 1539 1540 1541 1542 1543 1544 1545 1546 1546 1547 1548 1549 1550 1551 1551 1552 1552 1553
1506 1508 1510 1511 1513 1514 1516 1517 1519 1520 1522 1523 1524 1526 1527 1528 1529 1530 1531 1533 1534 1535 1536 1537 1538 1539 1540 1541 1542 1543 1544 1545 1546 1547 1548 1549 1549 1550 1551 1551 1552 1552 1553
1506 1508 1509 1511 1512 1513 1515 1517 1518 1520 1521 1522 1524 1525 1527 1528 1529 1530 1531 1532 1533 1535 1536 1536 1538 1539 1540 1541 1542 1543 1544 1545 1546 1547 1548 1549 1550 1550 1551 1551 1552 1553 1553
1506 1507 1509 1510 1511 1513 1514 1516 1517 1519 1520 1522 1523 1525 1526 1527 1529 1530 1531 1532 1533 1534 1535 1536 1537 1538 1540 1541 1542 1543 1544 1545 1546 1547 1548 1549 1550 1551 1551 1552 1552 1553 1553
1505 1506 1508 1509 1510 1512 1513 1515 1516 1518 1520 1521 1522 1524 1526 1527 1528 1529 1530 1531 1532 1533 1535 1536 1537 1538 1539 1540 1542 1543 1544 1545 1546 1547 1548 1549 1550 1551 1551 1552 1552 1553 1553
1504 1505 1506 1508 1509 1510 1512 1513 1515 1517 1519 1520 1522 1523 1525 1526 1528 1529 1530 1531 1532 1533 1534 1535 1536 1537 1538 1540 1541 1542 1544 1545 1546 1547 1548 1549 1549 1550 1551 1551 1552 1553 1553
1502 1503 1505 1506 1508 1509 1511 1512 1514 1516 1518 1519 1521 1522 1524 1525 1527 1528 1529 1530 1531 1532 1533 1534 1535 1537 1538 1539 1541 1542 1543 1544 1545 1547 1547 1548 1549 1550 1550 1551 1552 1552 1553
1500 1501 1503 1505 1506 1508 1509 1511 1512 1514 1516 1518 1519 1521 1523 1524 1526 1527 1528 1529 1530 1531 1532 1534 1535 1536 1537 1539 1540 1541 1543 1544 1545 1546 1547 1548 1549 1549 1550 1550 1551 1552 1552
1498 1499 1500 1502 1504 1506 1507 1509 1511 1512 1514 1516 1518 1519 1521 1523 1524 1525 1527 1528 1529 1530 1531 1533 1534 1535 1537 1538 1539 1541 1542 1543 1544 1545 1546 1547 1548 1548 1549 1550 1550 1551 1552
1495 1496 1498 1499 1501 1503 1505 1507 1508 1510 1512 1514 1515 1517 1519 1521 1522 1524 1525 1526 1528 1529 1530 1532 1533 1534 1536 1537 1538 1540 1541 1543 1544 1545 1546 1547 1547 1548 1548 1549 1550 1550 1551
1491 1493 1495 1496 1498 1500 1502 1504 1506 1508 1510 1511 1513 1515 1517 1518 1520 1521 1523 1525 1526 1528 1529 1530 1532 1533 1534 1536 1537 1539 1540 1542 1542 1544 1544 1545 1546 1547 1547 1548 1549 1549 1550
1487 1489 1491 1493 1495 1497 1499 1501 1503 1505 1507 1509 1511 1512 1514 1516 1518 1519 1521 1523 1525 1526 1528 1529 1530 1532 1533 1535 1536 1537 1539 1540 1541 1542 1543 1544 1545 1546 1546 1547 1548 1548 1548
1484 1485 1487 1489 1491 1493 1495 1498 1500 1502 1504 1506 1508 1509 1511 1514 1515 1517 1519 1521 1523 1524 1526 1527 1529 1530 1532 1533 1534 1536 1537 1538 1540 1541 1542 1543 1543 1544 1545 1545 1546 1547 1547
1480 1482 1484 1486 1488 1490 1492 1495 1497 1498 1501 1503 1505 1507 1509 1511 1513 1515 1517 1519 1521 1522 1524 1525 1527 1528 1530 1531 1532 1534 1535 1537 1538 1539 1540 1541 1542 1543 1543 1544 1545 1545 1546
1475 1477 1480 1482 1484 1486 1489 1492 1493 1495 1497 1499 1502 1504 1506 1508 1510 1512 1514 1516 1518 1520 1521 1523 1524 1526 1527 1529 1531 1532 1533 1534 1536 1537 1538 1539 1540 1541 1541 1542 1543 1543 1544
1472 1474 1476 1478 1480 1482 1485 1487 1489 1491 1493 1496 1498 1500 1503 1505 1508 1510 1512 1513 1515 1517 1518 1520 1522 1524 1525 1527 1528 1529 1531 1532 1533 1534 1536 1537 1538 1539 1539 1540 1541 1541 1542
1467 1470 1472 1474 1476 1478 1480 1482 1484 1486 1489 1492 1494 1497 1499 1501 1504 1507 1508 1510 1512 1514 1515 1517 1519 1521 1523 1524 1526 1527 1528 1529 1530 1532 1533 1534 1535 1536 1537 1538 1538 1539 1540
1463 1466 1468 1470 1472 1474 1476 1478 1480 1482 1485 1488 1491 1493 1495 1498 1500 1503 1505 1506 1508 1510 1512 1514 1516 1518 1520 1521 1523 1524 1525 1527 1527 1529 1530 1531 1532 1533 1534 1535 1536 1536 1537
1460 1462 1464 1466 1468 1470 1472 1474 1476 1478 1481 1484 1486 1489 1491 1494 1496 1499 1501 1503 1505 1507 1508 1510 1512 1514 1516 1518 1520 1522 1523 1523 1524 1526 1526 1528 1529 1530 1531 1532 1533 1533 1534
1456 1458 1460 1462 1463 1465 1467 1469 1471 1472 1475 1478 1482 1485 1487 1490 1492 1495 1497 1499 1501 1503 1505 1507 1509 1511 1513 1514 1517 1518 1520 1520 1521 1522 1524 1525 1526 1527 1528 1529 1529 1530 1531
1452 1454 1455 1457 1459 1461 1463 1465 1466 1468 1471 1475 1478 1481 1483 1486 1488 1490 1492 1495 1497 1499 1501 1503 1505 1507 1509 1511 1512 1514 1516 1517 1518 1519 1519 1521 1522 1523 1524 1525 1526 1527 1528
1448 1450 1451 1453 1455 1457 1459 1461 1462 1464 1467 1470 1473 1476 1479 1481 1483 1485 1488 1490 1492 1495 1496 1498 1500 1503 1505 1508 1509 1511 1512 1514 1514 1516 1516 1517 1518 1520 1521 1522 1522 1524 1524